Location: Melque
(41.0517°N, 4.4694°W)
Time: 21:23:33
(UTC+00:00)

Meteor 2-20 - Pass Details

Date: 11 December 2025
Orbit: 937 x 959 km, 82.5° (Epoch: 12 January)

Event Time Altitude Azimuth Distance (km) Brightness Sun altitude
Rises 18:10:20 0° 181° (S) 3,624 7.7 -14.7°
Reaches altitude 10° 18:12:50 10° 179° (S) 2,682 7.0 -15.2°
Maximum altitude 18:18:57 76° 96° (E) 989 4.4 -16.3°
Drops below altitude 10° 18:25:06 10° 11° (N) 2,692 6.6 -17.4°
Sets 18:27:36 0° 10° (N) 3,639 7.2 -17.8°
